Date String (YYYY-MM-DD hh:mm:ss) UTC,Instrument flags,Ambient pressure (hPa),Sample flow (lpm),Bypass flow (lpm),Sample temperature (°C),Ambient temperature (°C),ASC tube jacket temperature (°C),LED temperature (°C),Box temperature (°C),Sample RH (%),Span deviation,Mass concentration (μg/m³),Mass concentration (μg/m³),Mass concentration (μg/m³)
DateTimeUTC,F1_M11,P_M11,Q1_M11,Q2_M11,T1_M11,T2_M11,T3_M11,T4_M11,T5_M11,U1_M11,ZSPAN_M11,X0_M11,X2_M11,X1_M11
2023-05-07 08:00:00,,0827.6,5.01,0.00,29.0,27.4,00.0,37.4,30.5,10.1,0000.0,0012.68,0003.74,0002.45
2023-05-07 08:01:00,,0827.6,5.00,0.00,29.0,27.5,00.0,37.4,30.5,10.1,0000.0,0013.04,0003.68,0002.42
2023-05-07 08:02:00,,0827.7,4.99,0.00,29.0,27.5,00.0,37.4,30.5,10.2,0000.0,0012.99,0003.65,0002.39
2023-05-07 08:03:00,,0827.7,4.99,0.00,29.0,27.5,00.0,37.4,30.5,10.5,0000.0,0012.77,0003.65,0002.38
2023-05-07 08:04:00,,0827.7,4.99,0.00,29.0,27.5,00.0,37.4,30.5,10.5,0000.0,0013.67,0003.65,0002.37
2023-05-07 08:05:00,,0827.5,5.00,0.00,29.0,27.5,00.0,37.4,30.5,10.4,0000.0,0013.84,0003.65,0002.37
2023-05-07 08:06:00,,0827.5,5.01,0.00,29.0,27.5,00.0,37.4,30.5,10.2,0000.0,0013.50,0003.67,0002.37
2023-05-07 08:07:00,,0827.5,5.00,0.00,29.0,27.4,00.0,37.4,30.4,10.3,0000.0,0013.84,0003.70,0002.39
2023-05-07 08:08:00,,0827.5,4.99,0.00,29.0,27.4,00.0,37.4,30.4,10.2,0000.0,0013.23,0003.74,0002.39
2023-05-07 08:09:00,,0827.5,4.99,0.00,29.0,27.4,00.0,37.4,30.4,10.3,0000.0,0012.49,0003.72,0002.37
2023-05-07 08:10:00,,0827.5,5.00,0.00,29.0,27.4,00.0,37.4,30.4,10.2,0000.0,0012.13,0003.68,0002.36
2023-05-07 08:11:00,,0827.5,5.00,0.00,29.0,27.3,00.0,37.4,30.4,10.2,0000.0,0011.70,0003.68,0002.36
2023-05-07 08:12:00,,0827.5,5.01,0.00,29.0,27.3,00.0,37.4,30.4,10.2,0000.0,0011.58,0003.73,0002.38
2023-05-07 08:13:00,,0827.5,5.01,0.00,29.0,27.3,00.0,37.4,30.4,10.2,0000.0,0011.95,0003.75,0002.39
2023-05-07 08:14:00,,0827.5,5.00,0.00,29.0,27.3,00.0,37.4,30.4,10.1,0000.0,0012.07,0003.75,0002.37
2023-05-07 08:15:00,,0827.6,4.99,0.00,29.0,27.3,00.0,37.4,30.4,10.1,0000.0,0011.54,0003.75,0002.34
2023-05-07 08:16:00,,0827.5,4.99,0.00,29.0,27.3,00.0,37.4,30.4,10.2,0000.0,0011.10,0003.71,0002.31
2023-05-07 08:17:00,,0827.6,5.00,0.00,29.0,27.4,00.0,37.4,30.4,10.1,0000.0,0010.97,0003.68,0002.29
2023-05-07 08:18:00,,0827.5,5.01,0.00,29.0,27.4,00.0,37.4,30.3,10.1,0000.0,0010.65,0003.66,0002.27
2023-05-07 08:19:00,,0827.5,5.01,0.00,29.0,27.4,00.0,37.4,30.3,10.1,0000.0,0010.45,0003.63,0002.26
2023-05-07 08:20:00,,0827.5,5.00,0.00,29.0,27.4,00.0,37.4,30.4,10.0,0000.0,0010.33,0003.62,0002.25
2023-05-07 08:21:00,,0827.5,5.00,0.00,29.0,27.4,00.0,37.4,30.4,10.0,0000.0,0010.09,0003.63,0002.25
2023-05-07 08:22:00,,0827.5,5.00,0.00,29.0,27.4,00.0,37.4,30.4,10.0,0000.0,0009.99,0003.61,0002.23
2023-05-07 08:23:00,,0827.5,5.00,0.00,29.0,27.4,00.0,37.4,30.4,10.0,0000.0,0009.85,0003.61,0002.21
2023-05-07 08:24:00,,0827.5,4.99,0.00,29.0,27.4,00.0,37.4,30.4,09.9,0000.0,0009.26,0003.59,0002.20
2023-05-07 08:25:00,,0827.5,4.99,0.00,29.0,27.4,00.0,37.4,30.5,09.9,0000.0,0009.23,0003.57,0002.19
2023-05-07 08:26:00,,0827.5,5.00,0.00,29.0,27.4,00.0,37.4,30.5,09.9,0000.0,0009.08,0003.58,0002.21
2023-05-07 08:27:00,,0827.5,5.01,0.00,29.0,27.3,00.0,37.4,30.4,09.9,0000.0,0008.73,0003.62,0002.21
2023-05-07 08:28:00,,0827.5,5.01,0.00,29.0,27.3,00.0,37.4,30.3,09.9,0000.0,0009.49,0003.66,0002.20
2023-05-07 08:29:00,,0827.6,5.00,0.00,29.0,27.3,00.0,37.4,30.4,09.8,0000.0,0009.43,0003.66,0002.18
2023-05-07 08:30:00,,0827.6,5.00,0.00,29.0,27.3,00.0,37.4,30.3,09.8,0000.0,0009.14,0003.59,0002.16
2023-05-07 08:31:00,,0827.5,5.00,0.00,29.0,27.3,00.0,37.4,30.3,09.8,0000.0,0009.09,0003.57,0002.16
2023-05-07 08:32:00,,0827.5,4.97,0.00,29.0,27.3,00.0,37.4,30.3,09.7,0000.0,0008.90,0003.53,0002.17
2023-05-07 08:33:00,,0827.5,5.01,0.00,28.9,27.3,00.0,37.4,30.3,09.7,0000.0,0008.61,0003.55,0002.17
2023-05-07 08:34:00,,0827.5,5.01,0.00,28.9,27.3,00.0,37.3,30.3,09.8,0000.0,0008.48,0003.51,0002.17
2023-05-07 08:35:00,,0827.5,4.99,0.00,28.9,27.3,00.0,37.3,30.3,09.8,0000.0,0008.36,0003.48,0002.16
2023-05-07 08:36:00,,0827.5,4.98,0.00,28.9,27.3,00.0,37.3,30.3,09.8,0000.0,0008.54,0003.55,0002.16
2023-05-07 08:37:00,,0827.5,5.01,0.00,28.9,27.2,00.0,37.3,30.3,09.8,0000.0,0008.67,0003.57,0002.15
2023-05-07 08:38:00,,0827.5,5.00,0.00,28.9,27.2,00.0,37.3,30.3,09.8,0000.0,0009.36,0003.58,0002.14
2023-05-07 08:39:00,,0827.6,5.00,0.00,28.9,27.2,00.0,37.3,30.3,09.8,0000.0,0009.21,0003.57,0002.14
2023-05-07 08:40:00,,0827.6,5.01,0.00,28.9,27.2,00.0,37.3,30.3,09.8,0000.0,0009.17,0003.59,0002.15
2023-05-07 08:41:00,,0827.5,5.00,0.00,28.9,27.2,00.0,37.3,30.3,09.8,0000.0,0009.03,0003.58,0002.16
2023-05-07 08:42:00,,0827.5,4.99,0.00,28.9,27.2,00.0,37.3,30.3,09.8,0000.0,0009.28,0003.59,0002.15
2023-05-07 08:43:00,,0827.5,5.00,0.00,28.9,27.2,00.0,37.3,30.3,09.8,0000.0,0009.66,0003.64,0002.13
2023-05-07 08:44:00,,0827.5,5.00,0.00,28.9,27.2,00.0,37.3,30.2,09.8,0000.0,0010.03,0003.62,0002.11
2023-05-07 08:45:00,,0827.5,5.00,0.00,28.9,27.2,00.0,37.3,30.2,09.8,0000.0,0010.18,0003.65,0002.09
2023-05-07 08:46:00,,0827.6,5.00,0.00,28.9,27.2,00.0,37.3,30.3,09.8,0000.0,0010.37,0003.68,0002.08
2023-05-07 08:47:00,,0827.5,5.01,0.00,28.9,27.2,00.0,37.3,30.2,09.8,0000.0,0010.25,0003.65,0002.07
2023-05-07 08:48:00,,0827.5,5.01,0.00,28.9,27.2,00.0,37.3,30.2,09.9,0000.0,0010.28,0003.63,0002.09
2023-05-07 08:49:00,,0827.7,5.00,0.00,28.9,27.2,00.0,37.3,30.2,09.9,0000.0,0009.73,0003.63,0002.09
2023-05-07 08:50:00,,0827.5,5.00,0.00,28.9,27.2,00.0,37.3,30.2,09.7,0000.0,0009.27,0003.63,0002.09
2023-05-07 08:51:00,,0827.4,5.00,0.00,28.9,27.2,00.0,37.3,30.2,09.7,0000.0,0009.12,0003.57,0002.08
2023-05-07 08:52:00,,0827.4,4.99,0.00,28.9,27.1,00.0,37.3,30.2,09.8,0000.0,0009.35,0003.59,0002.07
2023-05-07 08:53:00,,0827.4,4.99,0.00,28.9,27.1,00.0,37.3,30.2,09.7,0000.0,0009.32,0003.63,0002.07
2023-05-07 08:54:00,,0827.4,5.00,0.00,28.8,27.1,00.0,37.2,30.2,09.8,0000.0,0009.16,0003.61,0002.06
2023-05-07 08:55:00,,0827.4,5.00,0.00,28.8,27.1,00.0,37.2,30.1,09.7,0000.0,0009.22,0003.59,0002.06
2023-05-07 08:56:00,,0827.5,5.00,0.00,28.8,27.1,00.0,37.2,30.2,09.7,0000.0,0009.25,0003.58,0002.08
2023-05-07 08:57:00,,0827.4,5.00,0.00,28.8,27.1,00.0,37.2,30.2,09.7,0000.0,0009.21,0003.57,0002.08
2023-05-07 08:58:00,,0827.4,5.00,0.00,28.8,27.1,00.0,37.2,30.2,09.7,0000.0,0009.22,0003.56,0002.08
2023-05-07 08:59:00,,0827.4,5.01,0.00,28.8,27.1,00.0,37.2,30.1,09.7,0000.0,0008.97,0003.56,0002.06
